Wind_Speed
69 68 64 60 59 69 60 51 52 52 42 41 44 46 48 43 41 43 44 46 44 37 42 46 42 40 46 53 54 50 52 50 51 49 44 37 34 38 40 50 50 52 52 55
55 58 53 46 59 56 50 43 46 44 39 40 42 47 50 46 46 50 50 49 42 42 46 46 43 42 42 46 54 52 51 47 46 47 46 48 41 45 45 43 46 49 55 58
46 51 45 49 44 43 41 36 38 37 39 37 42 46 49 49 51 50 49 50 45 45 50 49 47 46 45 43 48 53 54 55 52 47 51 55 56 51 48 49 53 56 61 65
42 43 44 41 40 39 36 34 34 36 35 38 45 44 50 51 51 49 49 53 47 46 50 52 50 50 48 46 46 51 55 54 52 55 55 57 58 58 57 59 60 63 63 62
40 39 36 34 34 33 33 31 30 33 34 44 42 46 51 51 52 50 56 57 51 49 48 46 51 52 52 51 48 52 54 54 57 59 56 56 57 59 66 65 66 67 67 66
35 32 30 31 29 30 32 33 36 38 38 45 43 50 54 53 52 54 54 57 58 52 48 43 45 49 56 55 51 50 58 59 60 64 62 60 56 54 63 64 67 63 68 70
28 27 27 27 28 28 32 36 38 38 39 48 52 55 56 60 59 60 59 58 54 55 53 47 47 50 51 58 54 52 53 56 56 56 57 50 52 41 48 55 59 64 60 57
24 24 24 24 26 30 34 37 37 38 44 50 57 58 59 64 62 62 62 62 58 58 53 56 52 51 51 52 54 54 54 54 56 57 60 60 60 60 59 58 59 58 58 55
20 21 20 21 24 29 34 35 35 40 46 51 56 59 59 62 64 64 64 63 64 62 53 60 60 57 52 52 55 58 60 60 59 60 63 65 66 68 70 70 71 75 69 58
16 17 17 19 21 25 27 31 37 44 48 51 52 55 58 55 54 58 59 60 62 66 64 61 60 61 62 61 61 62 62 65 66 66 68 69 71 71 70 71 72 76 73 67
15 16 16 18 20 21 25 29 32 38 41 49 49 50 48 44 39 45 50 58 61 65 67 67 67 62 58 57 59 63 64 66 67 69 72 74 73 73 67 63 67 84 82 76
17 18 19 19 19 19 23 25 29 32 37 41 45 46 45 44 41 39 45 51 55 56 63 66 64 67 64 65 66 69 69 72 72 74 74 72 71 71 71 68 66 78 85 87
20 20 21 22 22 21 22 26 31 32 31 33 35 41 45 46 47 46 47 51 57 60 62 62 68 72 75 74 72 78 77 76 73 74 76 75 75 76 76 75 76 71 76 81
25 24 24 24 24 24 26 27 30 32 34 34 36 38 42 46 46 46 49 54 57 58 61 65 70 73 76 77 77 79 85 82 80 80 80 79 81 83 83 81 81 78 75 79
27 29 28 27 28 29 30 30 32 35 37 40 42 43 43 49 51 52 54 54 55 57 59 60 63 68 72 74 77 81 83 85 85 86 88 89 88 88 89 89 88 87 86 83
27 27 27 29 32 32 33 35 37 38 40 39 40 41 43 44 44 44 42 43 50 56 59 61 62 62 64 67 71 74 78 83 86 88 90 92 93 94 94 94 92 92 91 91
20 22 24 26 25 22 22 19 20 20 24 29 31 35 35 37 36 40 41 43 50 52 51 52 55 59 60 61 63 66 71 75 77 81 86 90 93 94 95 95 95 94 95 96
20 19 18 18 18 18 19 20 21 22 23 25 27 30 32 34 37 40 43 45 46 46 46 48 51 53 56 59 62 65 67 69 72 75 79 83 87 90 93 96 98 99 98 99
16 16 16 16 17 17 17 17 17 18 19 21 23 25 27 29 31 34 36 38 39 41 43 46 49 52 55 59 61 63 66 69 73 75 77 79 82 86 90 94 97 100 101 101
13 13 13 14 15 15 16 16 16 17 18 20 22 24 25 27 29 31 34 36 39 41 43 45 48 51 53 56 59 62 66 69 72 76 79 81 83 85 86 88 90 93 95 97
12 10 10 11 12 12 13 13 14 15 17 18 20 21 23 24 26 28 31 35 38 41 44 46 49 52 55 58 61 64 66 69 71 74 76 78 81 83 85 87 88 88 89 90
10 10 10 10 11 11 11 11 12 13 14 16 18 20 22 25 27 30 33 36 39 42 46 49 52 55 58 61 63 65 67 69 71 73 75 76 78 79 81 82 84 85 86 87
9 9 11 10 8 8 9 11 13 15 16 18 20 21 24 26 30 33 37 40 44 47 51 54 57 60 63 65 67 68 70 71 73 74 75 76 77 77 78 79 80 81 83 84
10 9 8 8 9 10 12 12 13 15 17 19 21 25 28 31 35 39 42 46 49 53 56 59 61 63 63 65 66 67 68 69 70 70 71 72 73 74 74 75 76 77 77 78
8 8 8 9 9 9 10 13 15 17 20 23 26 30 34 38 41 44 48 52 55 58 61 64 65 65 66 66 66 66 66 65 65 65 64 64 64 65 65 65 66 67 68 69
8 8 7 7 9 11 14 16 18 22 26 30 33 37 40 43 46 50 54 58 61 63 63 64 64 64 64 64 63 61 61 60 58 58 58 58 59 60 61 61 62 62 63 64
7 6 7 9 12 14 17 20 25 29 31 36 39 43 45 48 52 56 58 61 63 64 64 64 64 64 63 61 60 59 58 57 57 57 58 57 57 56 57 58 59 59 60 61
Wind_Direction
273 273 272 270 271 270 269 267 269 266 262 253 247 240 237 235 222 220 219 214 213 208 208 206 207 207 205 205 202 201 198 198 202 208 212 206 224 227 239 240 238 242 249 251
275 271 269 269 260 265 270 263 261 260 251 245 239 234 233 226 218 215 218 217 211 204 202 202 202 202 206 206 208 206 205 211 214 213 209 211 221 221 222 230 242 252 251 255
273 273 271 267 272 268 267 258 254 248 243 239 233 230 229 222 222 220 220 220 201 200 199 202 201 203 206 209 207 211 214 214 218 223 220 224 226 232 236 237 242 248 251 258
270 270 270 272 269 267 261 254 249 243 238 232 231 230 225 223 223 221 218 218 210 199 200 203 203 206 207 208 212 210 209 208 210 218 220 227 231 237 242 245 251 255 258 259
271 271 271 268 263 259 253 245 237 233 224 225 227 226 224 228 222 222 218 216 215 204 204 204 208 209 208 208 210 214 217 217 215 216 221 227 232 240 242 249 255 259 259 260
271 272 270 262 253 246 240 228 220 220 215 222 221 223 222 225 224 225 221 221 217 214 211 208 209 212 209 211 207 214 219 220 225 222 226 230 243 254 250 257 260 263 266 265
278 272 263 254 244 235 230 226 219 217 214 214 216 220 219 221 224 227 228 228 231 219 211 210 212 211 213 214 213 218 219 223 223 229 231 228 229 237 246 252 259 263 264 260
269 261 253 242 233 223 222 221 217 211 213 213 215 220 218 222 226 229 234 230 232 229 220 213 211 212 212 217 220 221 223 225 226 225 224 230 237 240 246 248 260 260 259 255
252 247 240 233 225 223 223 224 217 212 216 217 218 221 223 227 227 231 234 237 232 234 228 219 216 216 216 219 223 226 227 227 228 232 235 233 240 241 244 252 255 251 254 250
233 235 229 227 224 225 228 227 224 219 216 221 223 224 226 233 233 237 240 242 243 238 239 237 230 231 234 233 230 227 229 230 230 231 236 240 243 244 249 255 244 244 248 243
223 230 229 226 226 228 229 231 231 233 231 224 228 231 236 240 240 238 239 243 245 248 248 245 246 246 238 234 236 236 236 237 238 238 239 244 246 250 252 255 247 236 245 245
215 224 230 228 229 229 230 231 236 234 235 235 235 235 238 240 240 238 242 244 244 245 244 246 245 243 237 236 239 235 234 235 235 238 241 246 249 251 254 259 253 244 244 245
226 222 224 230 230 229 232 232 234 236 234 238 237 238 238 243 243 243 243 245 247 246 245 240 241 242 240 241 237 234 233 233 239 246 248 249 249 249 253 257 257 259 251 250
232 228 229 228 234 234 237 239 235 234 234 235 236 234 233 234 235 239 241 241 240 241 241 240 240 239 240 241 242 237 235 238 240 242 243 247 251 253 255 256 257 258 258 256
232 235 236 233 232 232 236 235 239 241 239 239 240 241 241 241 243 242 242 245 246 248 248 247 247 247 247 247 246 245 243 243 244 245 247 249 252 252 254 256 257 258 258 259
236 239 246 245 241 238 237 238 240 242 245 247 248 249 251 256 260 262 258 254 254 253 251 250 251 252 251 251 251 252 253 252 251 252 253 254 255 256 257 257 257 256 256 257
251 247 247 250 256 262 267 265 260 265 267 268 266 266 263 259 259 256 256 254 253 254 255 254 253 253 255 255 256 255 254 254 254 254 254 255 256 256 257 258 258 257 258 257
243 250 257 259 255 252 247 244 243 246 248 248 248 247 248 249 252 253 253 255 260 263 263 262 261 260 259 259 260 260 260 260 259 259 258 257 257 258 259 259 259 260 260 260
239 244 249 251 254 258 256 252 251 254 256 258 257 256 256 257 258 260 263 265 265 266 264 263 263 263 262 261 260 260 260 259 260 260 260 260 259 259 259 259 260 261 261 262
225 227 230 235 239 244 247 249 251 255 258 260 261 261 260 259 258 259 262 265 268 271 271 270 269 268 267 267 266 265 265 264 263 262 263 263 264 265 265 265 265 264 264 264
213 220 225 228 231 233 232 233 238 244 248 254 258 261 263 266 268 269 269 269 270 272 273 274 274 274 273 273 271 271 270 270 270 270 270 270 270 270 270 270 269 269 269 268
194 200 207 212 214 222 231 243 253 259 262 264 265 266 268 270 272 275 277 278 278 278 278 278 278 278 277 278 278 278 278 277 276 276 275 274 274 273 273 273 273 272 272 272
178 192 207 220 232 245 254 257 258 260 261 266 272 277 281 282 282 282 283 284 285 286 286 285 285 285 284 283 282 282 281 281 280 280 280 279 278 277 275 274 273 272 272 271
202 213 223 231 241 246 251 256 265 273 279 283 286 288 290 291 291 290 290 290 289 289 289 289 288 288 288 286 285 284 283 282 281 279 278 277 277 277 277 277 276 275 275 275
211 215 219 228 241 255 270 277 283 288 293 296 298 299 298 297 297 298 297 297 297 299 298 297 297 295 293 291 289 288 287 286 285 284 283 282 282 281 280 279 278 277 277 276
195 209 225 250 274 282 283 290 297 301 303 303 304 305 304 304 305 304 303 303 302 301 301 300 299 298 297 295 294 293 291 290 289 287 286 285 284 284 283 282 281 280 279 278
212 245 266 274 281 291 299 301 300 300 302 306 309 309 309 308 306 304 304 306 307 307 306 304 301 300 299 298 297 296 295 293 293 291 290 288 287 285 284 283 283 282 281 279
Height
10273 10268 10268 10272 10268 10251 10262 10272 10272 10271 10280 10283 10286 10290 10292 10299 10307 10315 10320 10327 10336 10345 10353 10360 10367 10373 10380 10389 10398 10406 10414 10419 10427 10436 10445 10454 10460 10463 10466 10470 10471 10475 10476 10480
10259 10249 10254 10257 10240 10247 10252 10258 10259 10262 10266 10269 10274 10277 10282 10290 10297 10304 10311 10319 10330 10339 10347 10355 10362 10368 10374 10382 10391 10401 10411 10418 10424 10431 10437 10443 10442 10451 10455 10459 10459 10463 10465 10468
10242 10235 10238 10234 10238 10239 10241 10245 10248 10251 10254 10260 10264 10268 10273 10280 10286 10295 10305 10314 10323 10333 10341 10349 10357 10363 10369 10375 10383 10392 10401 10408 10418 10425 10431 10435 10438 10443 10446 10447 10448 10450 10452 10457
10226 10225 10225 10227 10227 10228 10230 10233 10237 10241 10248 10252 10254 10262 10267 10273 10280 10291 10300 10309 10320 10328 10335 10343 10350 10357 10363 10369 10377 10384 10389 10398 10408 10416 10424 10424 10430 10433 10436 10436 10436 10438 10441 10444
10212 10213 10216 10216 10215 10217 10219 10224 10229 10232 10240 10242 10249 10256 10262 10266 10275 10284 10294 10304 10313 10322 10329 10336 10343 10351 10358 10364 10371 10377 10384 10392 10399 10404 10410 10417 10422 10420 10423 10424 10424 10425 10425 10428
10203 10203 10204 10202 10204 10206 10209 10214 10218 10222 10231 10234 10244 10249 10255 10260 10271 10279 10288 10297 10306 10316 10323 10329 10336 10343 10351 10357 10363 10369 10376 10381 10385 10393 10399 10403 10406 10407 10411 10407 10406 10405 10406 10412
10193 10191 10192 10193 10195 10198 10202 10207 10211 10217 10226 10231 10237 10242 10250 10256 10263 10272 10281 10289 10297 10309 10317 10322 10329 10334 10341 10349 10355 10360 10366 10370 10377 10382 10388 10389 10392 10395 10390 10388 10389 10390 10394 10398
10182 10181 10183 10186 10189 10192 10196 10200 10207 10214 10220 10226 10231 10236 10244 10249 10257 10265 10270 10282 10289 10298 10308 10313 10320 10326 10331 10338 10344 10348 10354 10359 10364 10369 10374 10379 10380 10383 10383 10379 10380 10376 10380 10384
10174 10174 10178 10181 10184 10188 10192 10197 10205 10211 10216 10221 10226 10231 10237 10241 10249 10256 10262 10269 10280 10287 10295 10304 10310 10315 10320 10326 10332 10337 10341 10346 10351 10356 10359 10364 10364 10367 10369 10368 10368 10364 10367 10369
10167 10169 10173 10177 10181 10185 10189 10195 10200 10205 10210 10215 10220 10226 10230 10234 10242 10248 10255 10261 10268 10277 10284 10291 10298 10305 10309 10313 10318 10322 10326 10331 10335 10339 10343 10345 10347 10350 10352 10352 10351 10350 10351 10355
10163 10165 10169 10173 10177 10182 10186 10191 10196 10201 10205 10210 10214 10219 10223 10228 10234 10240 10246 10253 10259 10265 10272 10278 10283 10288 10294 10298 10302 10306 10310 10314 10318 10321 10324 10326 10328 10330 10332 10332 10332 10334 10336 10337
10159 10161 10164 10168 10172 10177 10181 10187 10191 10195 10200 10205 10209 10212 10216 10220 10225 10231 10237 10242 10246 10251 10258 10263 10268 10273 10277 10282 10286 10289 10292 10296 10300 10303 10305 10308 10309 10310 10311 10312 10313 10315 10316 10317
10154 10157 10159 10163 10166 10171 10176 10180 10184 10188 10192 10197 10200 10205 10209 10213 10218 10222 10226 10230 10232 10235 10240 10244 10249 10253 10256 10260 10265 10269 10273 10277 10280 10283 10285 10287 10289 10290 10292 10293 10293 10295 10296 10295
10148 10152 10155 10158 10161 10166 10169 10173 10177 10181 10184 10188 10191 10194 10199 10202 10206 10210 10213 10215 10217 10220 10223 10226 10228 10231 10236 10241 10246 10250 10254 10257 10260 10262 10264 10265 10266 10267 10268 10269 10270 10271 10271 10272
10144 10146 10148 10152 10156 10159 10162 10166 10169 10172 10176 10179 10182 10185 10189 10190 10192 10196 10199 10203 10206 10208 10210 10211 10214 10217 10220 10223 10225 10229 10233 10236 10238 10240 10241 10242 10243 10243 10244 10243 10244 10244 10245 10245
10139 10142 10144 10146 10149 10152 10154 10157 10160 10162 10165 10169 10172 10175 10177 10180 10183 10187 10188 10192 10191 10189 10192 10195 10198 10199 10201 10203 10206 10208 10210 10213 10214 10216 10216 10216 10216 10216 10216 10216 10217 10217 10217 10217
10135 10137 10139 10141 10144 10146 10149 10151 10152 10154 10158 10161 10163 10166 10168 10169 10170 10170 10171 10171 10171 10173 10177 10179 10181 10182 10183 10185 10185 10186 10187 10188 10189 10190 10190 10189 10188 10189 10189 10189 10188 10189 10189 10189
10129 10131 10133 10136 10138 10140 10143 10145 10147 10149 10151 10153 10154 10155 10156 10157 10157 10158 10158 10158 10161 10163 10164 10164 10165 10166 10166 10166 10166 10166 10165 10164 10164 10164 10164 10164 10162 10161 10160 10160 10159 10159 10159 10159
10125 10127 10129 10131 10132 10134 10136 10138 10140 10141 10143 10145 10146 10147 10148 10149 10150 10150 10150 10150 10150 10149 10148 10147 10147 10147 10147 10146 10145 10144 10143 10142 10140 10138 10137 10136 10135 10133 10132 10131 10130 10129 10128 10128
10122 10123 10125 10127 10129 10131 10132 10134 10135 10136 10137 10138 10138 10139 10139 10140 10140 10140 10139 10139 10139 10138 10136 10134 10133 10131 10129 10127 10125 10123 10121 10118 10116 10114 10112 10109 10107 10105 10103 10101 10100 10099 10098 10097
10120 10122 10124 10125 10127 10128 10129 10130 10131 10132 10133 10133 10134 10134 10134 10134 10133 10132 10131 10129 10127 10125 10123 10120 10117 10115 10111 10108 10105 10102 10099 10096 10093 10090 10087 10083 10080 10077 10073 10071 10069 10068 10066 10066
10118 10120 10121 10123 10124 10125 10127 10128 10129 10130 10130 10129 10129 10128 10126 10125 10124 10123 10121 10118 10116 10112 10109 10105 10101 10097 10093 10089 10085 10081 10076 10072 10068 10063 10059 10055 10051 10048 10044 10041 10038 10035 10033 10031
10115 10117 10119 10120 10122 10123 10124 10125 10125 10124 10124 10123 10123 10122 10121 10119 10116 10113 10110 10107 10103 10099 10095 10090 10085 10080 10074 10069 10063 10058 10052 10047 10042 10036 10031 10027 10022 10018 10014 10010 10007 10003 9999 9997
10114 10116 10118 10120 10121 10121 10121 10121 10121 10121 10121 10120 10118 10116 10113 10111 10108 10104 10100 10096 10091 10085 10080 10074 10067 10060 10054 10047 10040 10034 10028 10021 10015 10009 10004 9999 9994 9990 9986 9982 9977 9974 9970 9968
10114 10115 10116 10117 10118 10119 10119 10119 10118 10117 10116 10114 10111 10108 10104 10100 10096 10092 10086 10080 10073 10066 10058 10051 10044 10037 10029 10022 10014 10007 10000 9995 9989 9983 9978 9973 9968 9963 9959 9955 9951 9947 9943 9940
10113 10114 10115 10116 10117 10117 10116 10115 10113 10111 10108 10105 10102 10098 10094 10088 10083 10076 10070 10063 10055 10047 10039 10030 10021 10012 10003 9995 9988 9982 9975 9969 9964 9959 9955 9950 9946 9941 9936 9931 9927 9923 9919 9916
10113 10114 10115 10115 10115 10114 10112 10110 10107 10104 10100 10096 10092 10086 10081 10075 10069 10061 10054 10045 10035 10025 10016 10007 9998 9989 9981 9973 9966 9959 9953 9947 9942 9937 9932 9927 9922 9919 9914 9909 9904 9900 9897 9893